Time,TemperatureF,DewpointF,PressureIn,WindDirection,WindDirectionDegrees,WindSpeedMPH,WindSpeedGustMPH,Humidity,HourlyPrecipIn,Conditions,Clouds,dailyrainin,SoftwareType,DateUTC
2013-04-22 00:00:00,57.3,54.7,29.99,ESE,112,0.0,2.0,91,0.00,,---,0.00,VWS V14.01,2013-04-22 07:00:00,
2013-04-22 00:06:00,57.2,55.0,29.99,SE,134,0.0,2.0,91,0.00,,,0.00,weatherlink.com 1.10,2013-04-22 07:06:00,
2013-04-22 00:15:00,57.0,54.4,30.00,SE,135,0.0,2.0,91,0.00,,---,0.00,VWS V14.01,2013-04-22 07:15:00,
2013-04-22 00:21:00,57.1,55.0,30.00,SE,134,0.0,2.0,92,0.00,,,0.00,weatherlink.com 1.10,2013-04-22 07:21:00,
2013-04-22 00:30:00,57.3,55.0,29.99,SE,135,0.0,2.0,92,0.00,,---,0.00,VWS V14.01,2013-04-22 07:30:00,
2013-04-22 00:36:00,57.4,55.0,29.99,SE,134,0.0,2.0,92,0.00,,,0.00,weatherlink.com 1.10,2013-04-22 07:36:00,
2013-04-22 00:45:00,57.5,55.2,29.99,East,90,1.0,5.0,92,0.00,,---,0.00,VWS V14.01,2013-04-22 07:45:00,
2013-04-22 00:51:00,57.8,55.0,29.99,East,90,1.0,3.0,91,0.00,,,0.00,weatherlink.com 1.10,2013-04-22 07:51:00,
2013-04-22 01:00:00,58.0,55.4,29.99,East,90,0.0,3.0,91,0.00,,---,0.00,VWS V14.01,2013-04-22 08:00:00,
2013-04-22 01:06:00,58.0,55.0,29.98,East,100,0.0,2.0,90,0.00,,,0.00,weatherlink.com 1.10,2013-04-22 08:06:00,
2013-04-22 01:15:00,58.1,55.2,29.99,East,90,1.0,3.0,90,0.00,,---,0.00,VWS V14.01,2013-04-22 08:15:00,
2013-04-22 01:21:00,58.1,55.0,29.98,ENE,62,0.0,2.0,90,0.00,,,0.00,weatherlink.com 1.10,2013-04-22 08:21:00,
2013-04-22 01:30:00,58.2,55.3,29.98,ENE,68,0.0,2.0,90,0.00,,---,0.00,VWS V14.01,2013-04-22 08:30:00,
2013-04-22 01:36:00,58.2,55.0,29.98,East,92,0.0,2.0,89,0.00,,,0.00,weatherlink.com 1.10,2013-04-22 08:36:00,
2013-04-22 01:45:00,58.2,55.0,29.98,East,90,0.0,4.0,89,0.00,,---,0.00,VWS V14.01,2013-04-22 08:45:00,
2013-04-22 01:51:00,58.2,55.0,29.98,East,82,0.0,2.0,89,0.00,,,0.00,weatherlink.com 1.10,2013-04-22 08:51:00,
2013-04-22 02:00:00,58.2,55.3,29.98,East,90,0.0,2.0,90,0.00,,---,0.00,VWS V14.01,2013-04-22 09:00:00,
2013-04-22 02:06:00,58.2,55.0,29.97,ESE,110,1.0,2.0,90,0.00,,,0.00,weatherlink.com 1.10,2013-04-22 09:06:00,
2013-04-22 02:15:00,58.1,54.9,29.98,SSE,158,0.0,7.0,89,0.00,,---,0.00,VWS V14.01,2013-04-22 09:15:00,
2013-04-22 02:21:00,58.1,55.0,29.98,SSE,150,0.0,2.0,89,0.00,,,0.00,weatherlink.com 1.10,2013-04-22 09:21:00,
2013-04-22 02:30:00,58.1,54.9,29.98,SE,135,0.0,2.0,89,0.00,,---,0.00,VWS V14.01,2013-04-22 09:30:00,
2013-04-22 02:36:00,58.0,55.0,29.98,SSW,211,0.0,5.0,88,0.00,,,0.00,weatherlink.com 1.10,2013-04-22 09:36:00,
2013-04-22 02:45:00,58.0,54.8,29.98,South,180,2.0,5.0,89,0.00,,---,0.00,VWS V14.01,2013-04-22 09:45:00,
2013-04-22 02:51:00,57.9,55.0,29.97,South,186,0.0,3.0,89,0.00,,,0.00,weatherlink.com 1.10,2013-04-22 09:51:00,
2013-04-22 03:00:00,57.9,54.7,29.97,South,180,0.0,3.0,89,0.00,,---,0.00,VWS V14.01,2013-04-22 10:00:00,
2013-04-22 03:06:00,57.9,55.0,29.97,SE,129,2.0,3.0,89,0.00,,,0.00,weatherlink.com 1.10,2013-04-22 10:06:00,
2013-04-22 03:15:00,57.9,54.4,29.97,East,90,0.0,3.0,88,0.00,,---,0.00,VWS V14.01,2013-04-22 10:15:00,
2013-04-22 03:21:00,57.9,54.0,29.97,SSE,168,0.0,2.0,88,0.00,,,0.00,weatherlink.com 1.10,2013-04-22 10:21:00,
2013-04-22 03:30:00,57.8,54.3,29.97,SSE,158,1.0,4.0,88,0.00,,---,0.00,VWS V14.01,2013-04-22 10:30:00,
2013-04-22 03:36:00,57.7,54.0,29.97,East,98,0.0,6.0,87,0.00,,,0.00,weatherlink.com 1.10,2013-04-22 10:36:00,
2013-04-22 03:45:00,57.7,53.9,29.97,South,180,1.0,6.0,87,0.00,,---,0.00,VWS V14.01,2013-04-22 10:45:00,
2013-04-22 03:51:00,57.7,54.0,29.96,SSW,200,2.0,2.0,87,0.00,,,0.00,weatherlink.com 1.10,2013-04-22 10:51:00,
2013-04-22 04:00:00,57.7,53.9,29.96,SSW,202,0.0,3.0,87,0.00,,---,0.00,VWS V14.01,2013-04-22 11:00:00,
2013-04-22 04:06:00,57.8,54.0,29.96,South,169,0.0,3.0,87,0.00,,,0.00,weatherlink.com 1.10,2013-04-22 11:06:00,
2013-04-22 04:15:00,57.7,53.9,29.96,South,180,0.0,3.0,87,0.00,,---,0.00,VWS V14.01,2013-04-22 11:15:00,
2013-04-22 04:21:00,57.7,54.0,29.96,South,180,0.0,1.0,87,0.00,,,0.00,weatherlink.com 1.10,2013-04-22 11:21:00,
2013-04-22 04:30:00,57.8,54.0,29.96,South,180,0.0,1.0,87,0.00,,---,0.00,VWS V14.01,2013-04-22 11:30:00,
2013-04-22 04:37:00,57.8,54.0,29.96,ESE,113,0.0,6.0,86,0.00,,,0.00,weatherlink.com 1.10,2013-04-22 11:37:00,
2013-04-22 04:45:00,57.7,53.5,29.96,ESE,112,1.0,6.0,86,0.00,,---,0.00,VWS V14.01,2013-04-22 11:45:00,
2013-04-22 04:52:00,57.7,54.0,29.96,SE,145,0.0,3.0,86,0.00,,,0.00,weatherlink.com 1.10,2013-04-22 11:52:00,
2013-04-22 05:00:00,57.7,53.2,29.96,ESE,112,1.0,3.0,85,0.00,,---,0.00,VWS V14.01,2013-04-22 12:00:00,
2013-04-22 05:07:00,57.6,53.0,29.96,SSE,161,2.0,4.0,85,0.00,,,0.00,weatherlink.com 1.10,2013-04-22 12:07:00,
2013-04-22 05:15:00,57.6,53.1,29.96,South,180,1.0,4.0,85,0.00,,---,0.00,VWS V14.01,2013-04-22 12:15:00,
2013-04-22 05:22:00,57.6,54.0,29.96,South,182,0.0,1.0,86,0.00,,,0.00,weatherlink.com 1.10,2013-04-22 12:22:00,
2013-04-22 05:30:00,57.6,53.1,29.95,ESE,112,0.0,3.0,85,0.00,,---,0.00,VWS V14.01,2013-04-22 12:30:00,
2013-04-22 05:37:00,57.6,53.0,29.95,ENE,73,0.0,3.0,85,0.00,,,0.00,weatherlink.com 1.10,2013-04-22 12:37:00,
2013-04-22 05:45:00,57.6,53.1,29.95,ESE,112,1.0,4.0,85,0.00,,---,0.00,VWS V14.01,2013-04-22 12:45:00,
2013-04-22 05:52:00,57.6,53.0,29.95,SE,135,0.0,2.0,85,0.00,,,0.00,weatherlink.com 1.10,2013-04-22 12:52:00,
2013-04-22 06:00:00,57.5,53.0,29.96,SE,135,0.0,2.0,85,0.00,,---,0.00,VWS V14.01,2013-04-22 13:00:00,
2013-04-22 06:07:00,57.4,53.0,29.96,South,184,0.0,2.0,86,0.00,,,0.00,weatherlink.com 1.10,2013-04-22 13:07:00,
2013-04-22 06:15:00,57.5,53.3,29.96,SSE,158,0.0,2.0,86,0.00,,---,0.00,VWS V14.01,2013-04-22 13:15:00,
2013-04-22 06:22:00,57.5,53.0,29.96,ESE,115,3.0,3.0,86,0.00,,,0.00,weatherlink.com 1.10,2013-04-22 13:22:00,
2013-04-22 06:30:00,57.5,53.3,29.97,ESE,112,0.0,4.0,86,0.00,,---,0.00,VWS V14.01,2013-04-22 13:30:00,
2013-04-22 06:37:00,57.6,53.0,29.97,SE,125,0.0,4.0,85,0.00,,,0.00,weatherlink.com 1.10,2013-04-22 13:37:00,
2013-04-22 06:45:00,57.6,52.8,29.97,SSE,158,1.0,4.0,84,0.00,,---,0.00,VWS V14.01,2013-04-22 13:45:00,
2013-04-22 06:52:00,57.6,53.0,29.97,SE,134,0.0,3.0,84,0.00,,,0.00,weatherlink.com 1.10,2013-04-22 13:52:00,
2013-04-22 07:00:00,57.6,52.8,29.97,East,90,0.0,3.0,84,0.00,,---,0.00,VWS V14.01,2013-04-22 14:00:00,
2013-04-22 07:07:00,57.7,53.0,29.98,SE,126,0.0,1.0,85,0.00,,,0.00,weatherlink.com 1.10,2013-04-22 14:07:00,
2013-04-22 07:15:00,57.9,53.4,29.98,SSE,158,0.0,2.0,85,0.00,,---,0.00,VWS V14.01,2013-04-22 14:15:00,
2013-04-22 07:22:00,58.0,54.0,29.98,SE,139,0.0,3.0,85,0.00,,,0.00,weatherlink.com 1.10,2013-04-22 14:22:00,
2013-04-22 07:30:00,58.2,53.4,29.98,SSE,158,0.0,3.0,84,0.00,,---,0.00,VWS V14.01,2013-04-22 14:30:00,
2013-04-22 07:37:00,58.3,53.0,29.98,SSW,199,2.0,5.0,83,0.00,,,0.00,weatherlink.com 1.10,2013-04-22 14:37:00,
2013-04-22 07:45:00,58.4,53.3,29.98,SSW,202,1.0,5.0,83,0.00,,---,0.00,VWS V14.01,2013-04-22 14:45:00,
2013-04-22 07:52:00,58.7,54.0,29.98,SW,215,0.0,4.0,83,0.00,,,0.00,weatherlink.com 1.10,2013-04-22 14:52:00,
2013-04-22 08:00:00,58.9,53.8,29.99,South,180,1.0,4.0,83,0.00,,---,0.00,VWS V14.01,2013-04-22 15:00:00,
2013-04-22 08:07:00,59.2,54.0,29.99,SSE,163,0.0,2.0,82,0.00,,,0.00,weatherlink.com 1.10,2013-04-22 15:07:00,
2013-04-22 08:15:00,59.5,53.7,29.99,SSE,158,1.0,5.0,81,0.00,,---,0.00,VWS V14.01,2013-04-22 15:15:00,
2013-04-22 08:22:00,59.6,53.0,29.99,South,172,0.0,3.0,80,0.00,,,0.00,weatherlink.com 1.10,2013-04-22 15:22:00,
2013-04-22 08:30:00,59.8,54.0,29.99,South,180,0.0,3.0,81,0.00,,---,0.00,VWS V14.01,2013-04-22 15:30:00,
2013-04-22 08:37:00,60.1,54.0,29.98,South,186,0.0,2.0,79,0.00,,,0.00,weatherlink.com 1.10,2013-04-22 15:37:00,
2013-04-22 08:45:00,60.5,54.3,29.98,South,180,0.0,2.0,80,0.00,,---,0.00,VWS V14.01,2013-04-22 15:45:00,
2013-04-22 08:52:00,61.1,54.0,29.98,SW,219,0.0,3.0,78,0.00,,,0.00,weatherlink.com 1.10,2013-04-22 15:52:00,
2013-04-22 09:00:00,61.5,54.2,29.99,SSE,158,0.0,3.0,77,0.00,,---,0.00,VWS V14.01,2013-04-22 16:00:00,
2013-04-22 09:07:00,62.0,55.0,29.98,SSE,152,0.0,7.0,77,0.00,,,0.00,weatherlink.com 1.10,2013-04-22 16:07:00,
2013-04-22 09:15:00,63.1,55.1,29.98,SSE,158,0.0,7.0,75,0.00,,---,0.00,VWS V14.01,2013-04-22 16:15:00,
2013-04-22 09:22:00,64.3,55.0,29.98,South,179,3.0,5.0,73,0.00,,,0.00,weatherlink.com 1.10,2013-04-22 16:22:00,
2013-04-22 09:30:00,65.0,55.4,29.99,South,180,1.0,6.0,71,0.00,,---,0.00,VWS V14.01,2013-04-22 16:30:00,
2013-04-22 09:37:00,65.4,55.0,29.99,SSE,163,0.0,5.0,69,0.00,,,0.00,weatherlink.com 1.10,2013-04-22 16:37:00,
2013-04-22 09:45:00,66.1,55.7,29.99,ESE,112,1.0,5.0,69,0.00,,---,0.00,VWS V14.01,2013-04-22 16:45:00,
2013-04-22 09:52:00,66.1,56.0,29.99,SSW,203,4.0,8.0,69,0.00,,,0.00,weatherlink.com 1.10,2013-04-22 16:52:00,
2013-04-22 10:00:00,65.8,56.2,29.99,SSW,202,3.0,8.0,71,0.00,,---,0.00,VWS V14.01,2013-04-22 17:00:00,
2013-04-22 10:07:00,65.3,56.0,29.98,SSW,208,1.0,9.0,71,0.00,,,0.00,weatherlink.com 1.10,2013-04-22 17:07:00,
2013-04-22 10:15:00,65.2,56.0,29.98,SSW,202,3.0,9.0,72,0.00,,---,0.00,VWS V14.01,2013-04-22 17:15:00,
2013-04-22 10:22:00,65.4,56.0,29.98,ESE,108,0.0,10.0,71,0.00,,,0.00,weatherlink.com 1.10,2013-04-22 17:22:00,
2013-04-22 10:30:00,66.1,57.2,29.98,South,180,3.0,10.0,73,0.00,,---,0.00,VWS V14.01,2013-04-22 17:30:00,
2013-04-22 10:37:00,66.4,57.0,29.98,SW,225,3.0,10.0,71,0.00,,,0.00,weatherlink.com 1.10,2013-04-22 17:37:00,
2013-04-22 10:45:00,67.0,56.5,29.99,SSW,202,3.0,10.0,69,0.00,,---,0.00,VWS V14.01,2013-04-22 17:45:00,
2013-04-22 10:52:00,66.7,57.0,29.98,South,169,4.0,9.0,70,0.00,,,0.00,weatherlink.com 1.10,2013-04-22 17:52:00,
2013-04-22 11:00:00,66.4,55.9,29.98,SSW,202,4.0,9.0,69,0.00,,---,0.00,VWS V14.01,2013-04-22 18:00:00,
2013-04-22 11:07:00,66.5,56.0,29.98,South,175,6.0,9.0,70,0.00,,,0.00,weatherlink.com 1.10,2013-04-22 18:07:00,
2013-04-22 11:15:00,66.6,56.1,29.98,SSW,202,3.0,10.0,69,0.00,,---,0.00,VWS V14.01,2013-04-22 18:15:00,
2013-04-22 11:22:00,66.5,56.0,29.98,South,181,3.0,8.0,70,0.00,,,0.00,weatherlink.com 1.10,2013-04-22 18:22:00,
2013-04-22 11:30:00,66.7,56.2,29.98,South,180,3.0,10.0,69,0.00,,---,0.00,VWS V14.01,2013-04-22 18:30:00,
2013-04-22 11:37:00,66.8,56.0,29.97,SSW,210,2.0,9.0,69,0.00,,,0.00,weatherlink.com 1.10,2013-04-22 18:37:00,
2013-04-22 11:45:00,67.0,56.5,29.97,SSW,202,3.0,9.0,69,0.00,,---,0.00,VWS V14.01,2013-04-22 18:45:00,
2013-04-22 11:52:00,67.0,56.0,29.97,West,279,2.0,7.0,69,0.00,,,0.00,weatherlink.com 1.10,2013-04-22 18:52:00,
2013-04-22 12:00:00,67.0,56.1,29.97,SSW,202,3.0,7.0,68,0.00,,---,0.00,VWS V14.01,2013-04-22 19:00:00,
2013-04-22 12:07:00,67.1,56.0,29.96,SSW,211,1.0,8.0,68,0.00,,,0.00,weatherlink.com 1.10,2013-04-22 19:07:00,
2013-04-22 12:15:00,66.6,55.7,29.96,WSW,248,4.0,9.0,68,0.00,,---,0.00,VWS V14.01,2013-04-22 19:15:00,
2013-04-22 12:22:00,66.8,56.0,29.96,South,191,7.0,9.0,68,0.00,,,0.00,weatherlink.com 1.10,2013-04-22 19:22:00,
2013-04-22 12:30:00,67.0,56.1,29.96,SSW,202,4.0,9.0,68,0.00,,---,0.00,VWS V14.01,2013-04-22 19:30:00,
2013-04-22 12:37:00,66.8,56.0,29.95,SSW,212,7.0,8.0,68,0.00,,,0.00,weatherlink.com 1.10,2013-04-22 19:37:00,
2013-04-22 12:45:00,66.7,56.2,29.95,SSW,202,3.0,9.0,69,0.00,,---,0.00,VWS V14.01,2013-04-22 19:45:00,
2013-04-22 12:52:00,67.2,56.0,29.95,West,273,3.0,7.0,68,0.00,,,0.00,weatherlink.com 1.10,2013-04-22 19:52:00,
2013-04-22 13:00:00,67.3,56.4,29.94,SSW,202,3.0,8.0,68,0.00,,---,0.00,VWS V14.01,2013-04-22 20:00:00,
2013-04-22 13:07:00,67.7,56.0,29.94,South,190,5.0,9.0,66,0.00,,,0.00,weatherlink.com 1.10,2013-04-22 20:07:00,
2013-04-22 13:15:00,67.9,56.5,29.94,SSW,202,3.0,9.0,67,0.00,,---,0.00,VWS V14.01,2013-04-22 20:15:00,
2013-04-22 13:22:00,67.5,56.0,29.94,South,180,7.0,10.0,67,0.00,,,0.00,weatherlink.com 1.10,2013-04-22 20:22:00,
2013-04-22 13:30:00,67.8,56.9,29.94,SSW,202,4.0,10.0,68,0.00,,---,0.00,VWS V14.01,2013-04-22 20:30:00,
2013-04-22 13:37:00,68.4,57.0,29.93,West,259,3.0,13.0,66,0.00,,,0.00,weatherlink.com 1.10,2013-04-22 20:37:00,
2013-04-22 13:45:00,68.5,56.7,29.93,SSW,202,4.0,13.0,66,0.00,,---,0.00,VWS V14.01,2013-04-22 20:45:00,
2013-04-22 13:52:00,68.6,57.0,29.93,SSE,158,2.0,10.0,66,0.00,,,0.00,weatherlink.com 1.10,2013-04-22 20:52:00,
2013-04-22 14:00:00,68.8,57.0,29.93,SSW,202,4.0,10.0,66,0.00,,---,0.00,VWS V14.01,2013-04-22 21:00:00,
2013-04-22 14:07:00,68.4,57.0,29.93,WSW,239,3.0,12.0,67,0.00,,,0.00,weatherlink.com 1.10,2013-04-22 21:07:00,
2013-04-22 14:15:00,67.9,56.5,29.93,SSW,202,4.0,13.0,67,0.00,,---,0.00,VWS V14.01,2013-04-22 21:15:00,
2013-04-22 14:22:00,67.8,56.0,29.92,SW,236,4.0,10.0,67,0.00,,,0.00,weatherlink.com 1.10,2013-04-22 21:22:00,
2013-04-22 14:30:00,67.7,56.8,29.92,SSW,202,5.0,12.0,68,0.00,,---,0.00,VWS V14.01,2013-04-22 21:30:00,
2013-04-22 14:37:00,67.6,57.0,29.92,South,184,3.0,12.0,68,0.00,,,0.00,weatherlink.com 1.10,2013-04-22 21:37:00,
2013-04-22 14:45:00,67.5,56.6,29.92,SSW,202,5.0,12.0,68,0.00,,---,0.00,VWS V14.01,2013-04-22 21:45:00,
2013-04-22 14:52:00,67.8,57.0,29.91,South,190,5.0,11.0,68,0.00,,,0.00,weatherlink.com 1.10,2013-04-22 21:52:00,
2013-04-22 15:00:00,67.7,56.4,29.91,SSW,202,5.0,11.0,67,0.00,,---,0.00,VWS V14.01,2013-04-22 22:00:00,
2013-04-22 15:07:00,67.8,56.0,29.91,SW,221,2.0,12.0,67,0.00,,,0.00,weatherlink.com 1.10,2013-04-22 22:07:00,
2013-04-22 15:15:00,67.9,57.0,29.91,SSW,202,5.0,12.0,68,0.00,,---,0.00,VWS V14.01,2013-04-22 22:15:00,
2013-04-22 15:23:00,67.9,57.0,29.90,WSW,249,6.0,9.0,68,0.00,,,0.00,weatherlink.com 1.10,2013-04-22 22:23:00,
2013-04-22 15:30:00,67.7,56.8,29.90,SSW,202,5.0,12.0,68,0.00,,---,0.00,VWS V14.01,2013-04-22 22:30:00,
2013-04-22 15:38:00,67.9,57.0,29.90,SE,146,6.0,10.0,68,0.00,,,0.00,weatherlink.com 1.10,2013-04-22 22:38:00,
2013-04-22 15:45:00,68.2,56.8,29.90,SSW,202,5.0,10.0,67,0.00,,---,0.00,VWS V14.01,2013-04-22 22:45:00,
2013-04-22 15:53:00,68.4,57.0,29.90,South,172,5.0,10.0,67,0.00,,,0.00,weatherlink.com 1.10,2013-04-22 22:53:00,
2013-04-22 16:00:00,68.0,56.7,29.90,SSW,202,5.0,13.0,67,0.00,,---,0.00,VWS V14.01,2013-04-22 23:00:00,
2013-04-22 16:08:00,67.7,57.0,29.89,SSW,197,7.0,13.0,68,0.00,,,0.00,weatherlink.com 1.10,2013-04-22 23:08:00,
2013-04-22 16:15:00,67.5,56.6,29.90,SSW,202,5.0,13.0,68,0.00,,---,0.00,VWS V14.01,2013-04-22 23:15:00,
2013-04-22 16:23:00,67.2,57.0,29.89,South,182,7.0,12.0,69,0.00,,,0.00,weatherlink.com 1.10,2013-04-22 23:23:00,
2013-04-22 16:30:00,67.4,56.9,29.89,SSW,202,5.0,12.0,69,0.00,,---,0.00,VWS V14.01,2013-04-22 23:30:00,
2013-04-22 16:38:00,67.4,57.0,29.90,South,184,10.0,10.0,69,0.00,,,0.00,weatherlink.com 1.10,2013-04-22 23:38:00,
2013-04-22 16:45:00,67.2,56.3,29.89,SSW,202,5.0,10.0,68,0.00,,---,0.00,VWS V14.01,2013-04-22 23:45:00,
2013-04-22 16:53:00,67.2,57.0,29.89,South,189,7.0,12.0,69,0.00,,,0.00,weatherlink.com 1.10,2013-04-22 23:53:00,
2013-04-22 17:00:00,67.0,56.5,29.89,South,180,5.0,12.0,69,0.00,,---,0.00,VWS V14.01,2013-04-23 00:00:00,
2013-04-22 17:08:00,66.8,57.0,29.89,SW,218,4.0,9.0,70,0.00,,,0.00,weatherlink.com 1.10,2013-04-23 00:08:00,
2013-04-22 17:23:00,67.0,56.5,29.89,South,180,5.0,12.0,69,0.00,,---,0.00,VWS V14.01,2013-04-23 00:23:00,
2013-04-22 17:28:00,66.0,56.7,29.89,South,175,4.0,9.0,72,0.00,,---,0.00,VWS V14.01,2013-04-23 00:28:00,
2013-04-22 17:33:00,65.9,56.2,29.89,South,191,2.0,8.0,71,0.00,,---,0.00,VWS V14.01,2013-04-23 00:33:00,
2013-04-22 17:45:00,65.7,56.4,29.89,South,180,5.0,11.0,72,0.00,,---,0.00,VWS V14.01,2013-04-23 00:45:00,
2013-04-22 17:53:00,65.0,56.0,29.89,South,182,6.0,10.0,73,0.00,,,0.00,weatherlink.com 1.10,2013-04-23 00:53:00,
2013-04-22 18:00:00,64.7,55.9,29.89,SSW,202,5.0,10.0,73,0.00,,---,0.00,VWS V14.01,2013-04-23 01:00:00,
2013-04-22 18:08:00,63.8,56.0,29.90,SSW,200,5.0,12.0,75,0.00,,,0.00,weatherlink.com 1.10,2013-04-23 01:08:00,
2013-04-22 18:15:00,63.1,55.4,29.90,SSW,202,5.0,12.0,76,0.00,,---,0.00,VWS V14.01,2013-04-23 01:15:00,
2013-04-22 18:23:00,62.5,56.0,29.90,SSW,198,1.0,10.0,78,0.00,,,0.00,weatherlink.com 1.10,2013-04-23 01:23:00,
2013-04-22 18:30:00,62.2,55.6,29.89,SSW,202,4.0,10.0,79,0.00,,---,0.00,VWS V14.01,2013-04-23 01:30:00,
2013-04-22 18:38:00,62.3,56.0,29.89,SE,142,3.0,7.0,79,0.00,,,0.00,weatherlink.com 1.10,2013-04-23 01:38:00,
2013-04-22 18:45:00,62.1,55.2,29.89,South,180,4.0,8.0,78,0.00,,---,0.00,VWS V14.01,2013-04-23 01:45:00,
2013-04-22 18:53:00,61.2,55.0,29.89,South,180,4.0,10.0,80,0.00,,,0.00,weatherlink.com 1.10,2013-04-23 01:53:00,
2013-04-22 19:00:00,60.8,54.9,29.90,SSW,202,4.0,10.0,81,0.00,,---,0.00,VWS V14.01,2013-04-23 02:00:00,
2013-04-22 19:08:00,60.5,55.0,29.89,SSW,197,3.0,7.0,81,0.00,,,0.00,weatherlink.com 1.10,2013-04-23 02:08:00,
2013-04-22 19:15:00,60.3,54.8,29.89,SSW,202,3.0,7.0,82,0.00,,---,0.00,VWS V14.01,2013-04-23 02:15:00,
2013-04-22 19:23:00,60.0,55.0,29.89,SW,218,2.0,6.0,82,0.00,,,0.00,weatherlink.com 1.10,2013-04-23 02:23:00,
2013-04-22 19:30:00,59.9,54.7,29.90,SSW,202,2.0,7.0,83,0.00,,---,0.00,VWS V14.01,2013-04-23 02:30:00,
2013-04-22 19:38:00,59.8,55.0,29.89,SSW,206,4.0,4.0,83,0.00,,,0.00,weatherlink.com 1.10,2013-04-23 02:38:00,
2013-04-22 19:45:00,59.8,54.6,29.90,SSW,202,2.0,7.0,83,0.00,,---,0.00,VWS V14.01,2013-04-23 02:45:00,
2013-04-22 19:53:00,59.9,55.0,29.90,SW,230,3.0,5.0,84,0.00,,,0.00,weatherlink.com 1.10,2013-04-23 02:53:00,
2013-04-22 20:00:00,59.9,54.7,29.90,SSW,202,1.0,5.0,83,0.00,,---,0.00,VWS V14.01,2013-04-23 03:00:00,
2013-04-22 20:08:00,59.8,55.0,29.91,SSE,161,1.0,4.0,83,0.00,,,0.00,weatherlink.com 1.10,2013-04-23 03:08:00,
2013-04-22 20:15:00,59.8,54.6,29.91,South,180,1.0,4.0,83,0.00,,---,0.00,VWS V14.01,2013-04-23 03:15:00,
2013-04-22 20:23:00,59.5,54.0,29.91,South,190,1.0,6.0,83,0.00,,,0.00,weatherlink.com 1.10,2013-04-23 03:23:00,
2013-04-22 20:30:00,59.4,54.2,29.91,South,180,2.0,7.0,83,0.00,,---,0.00,VWS V14.01,2013-04-23 03:30:00,
2013-04-22 20:38:00,59.2,54.0,29.92,SSW,205,0.0,6.0,83,0.00,,,0.00,weatherlink.com 1.10,2013-04-23 03:38:00,
2013-04-22 20:45:00,59.2,54.0,29.92,SSW,202,2.0,6.0,83,0.00,,---,0.00,VWS V14.01,2013-04-23 03:45:00,
2013-04-22 20:54:00,59.2,54.0,29.93,South,178,1.0,6.0,83,0.00,,,0.00,weatherlink.com 1.10,2013-04-23 03:54:00,
2013-04-22 21:00:00,59.1,54.0,29.92,South,180,2.0,7.0,83,0.00,,---,0.00,VWS V14.01,2013-04-23 04:00:00,
2013-04-22 21:08:00,59.0,54.0,29.93,ESE,110,1.0,4.0,83,0.00,,,0.00,weatherlink.com 1.10,2013-04-23 04:08:00,
2013-04-22 21:15:00,59.0,53.5,29.93,South,180,1.0,4.0,82,0.00,,---,0.00,VWS V14.01,2013-04-23 04:15:00,
2013-04-22 21:23:00,59.0,54.0,29.94,SE,133,0.0,3.0,82,0.00,,,0.00,weatherlink.com 1.10,2013-04-23 04:23:00,
2013-04-22 21:30:00,59.0,53.5,29.94,SSE,158,1.0,3.0,82,0.00,,---,0.00,VWS V14.01,2013-04-23 04:30:00,
2013-04-22 21:38:00,58.9,53.0,29.94,ESE,110,0.0,3.0,82,0.00,,,0.00,weatherlink.com 1.10,2013-04-23 04:38:00,
2013-04-22 21:45:00,58.9,53.4,29.94,ESE,112,1.0,5.0,82,0.00,,---,0.00,VWS V14.01,2013-04-23 04:45:00,
2013-04-22 21:53:00,58.9,54.0,29.93,SE,129,1.0,3.0,83,0.00,,,0.00,weatherlink.com 1.10,2013-04-23 04:53:00,
2013-04-22 22:00:00,58.9,53.4,29.93,ESE,112,1.0,4.0,82,0.00,,---,0.00,VWS V14.01,2013-04-23 05:00:00,
2013-04-22 22:08:00,58.8,53.0,29.93,South,171,0.0,5.0,82,0.00,,,0.00,weatherlink.com 1.10,2013-04-23 05:08:00,
2013-04-22 22:15:00,58.7,53.2,29.93,South,180,1.0,5.0,82,0.00,,---,0.00,VWS V14.01,2013-04-23 05:15:00,
2013-04-22 22:23:00,58.7,53.0,29.93,SSE,149,1.0,6.0,82,0.00,,,0.00,weatherlink.com 1.10,2013-04-23 05:23:00,
2013-04-22 22:30:00,58.7,53.2,29.93,ESE,112,1.0,6.0,82,0.00,,---,0.00,VWS V14.01,2013-04-23 05:30:00,
2013-04-22 22:38:00,58.6,53.0,29.93,ESE,111,0.0,4.0,82,0.00,,,0.00,weatherlink.com 1.10,2013-04-23 05:38:00,
2013-04-22 22:45:00,58.6,53.1,29.93,ESE,112,1.0,5.0,82,0.00,,---,0.00,VWS V14.01,2013-04-23 05:45:00,
2013-04-22 22:53:00,58.6,53.0,29.93,East,88,0.0,5.0,82,0.00,,,0.00,weatherlink.com 1.10,2013-04-23 05:53:00,
2013-04-22 23:00:00,58.6,53.1,29.93,ESE,112,1.0,5.0,82,0.00,,---,0.00,VWS V14.01,2013-04-23 06:00:00,
2013-04-22 23:08:00,58.6,53.0,29.93,ESE,121,0.0,3.0,82,0.00,,,0.00,weatherlink.com 1.10,2013-04-23 06:08:00,
2013-04-22 23:15:00,58.6,53.1,29.93,SE,135,1.0,3.0,82,0.00,,---,0.00,VWS V14.01,2013-04-23 06:15:00,
2013-04-22 23:23:00,58.5,53.0,29.93,South,169,0.0,3.0,82,0.00,,,0.00,weatherlink.com 1.10,2013-04-23 06:23:00,
2013-04-22 23:30:00,58.4,52.9,29.93,South,180,0.0,3.0,82,0.00,,---,0.00,VWS V14.01,2013-04-23 06:30:00,
2013-04-22 23:38:00,58.4,53.0,29.93,SE,142,0.0,3.0,82,0.00,,,0.00,weatherlink.com 1.10,2013-04-23 06:38:00,
2013-04-22 23:45:00,58.4,52.6,29.93,South,180,1.0,4.0,81,0.00,,---,0.00,VWS V14.01,2013-04-23 06:45:00,
2013-04-22 23:53:00,58.4,53.0,29.93,ESE,105,1.0,3.0,81,0.00,,,0.00,weatherlink.com 1.10,2013-04-23 06:53:00,